TimeEST,TemperatureF,Dew PointF,Humidity,Sea Level PressureIn,VisibilityMPH,Wind Direction,Wind SpeedMPH,Gust SpeedMPH,PrecipitationIn,Events,Conditions,WindDirDegrees,DateUTC
12:52 AM,21.9,-9.9,24,30.31,10.0,Variable,6.9,-,N/A,,Clear,0,2014-01-04 05:52:00
1:52 AM,24.1,-11.9,20,30.29,10.0,South,13.8,24.2,N/A,,Clear,170,2014-01-04 06:52:00
2:52 AM,24.1,-11.0,21,30.30,10.0,South,11.5,24.2,N/A,,Clear,170,2014-01-04 07:52:00
3:52 AM,24.1,-9.0,23,30.30,10.0,SSE,9.2,19.6,N/A,,Clear,160,2014-01-04 08:52:00
4:52 AM,23.0,-6.0,28,30.32,10.0,Variable,5.8,-,N/A,,Clear,0,2014-01-04 09:52:00
5:52 AM,23.0,-5.1,29,30.33,10.0,SE,6.9,-,N/A,,Clear,130,2014-01-04 10:52:00
6:52 AM,23.0,-5.1,29,30.34,10.0,SSE,5.8,-,N/A,,Clear,150,2014-01-04 11:52:00
7:52 AM,24.1,-5.1,28,30.35,10.0,ESE,4.6,-,N/A,,Clear,120,2014-01-04 12:52:00
8:52 AM,26.1,-2.0,30,30.35,10.0,East,4.6,-,N/A,,Clear,100,2014-01-04 13:52:00
9:52 AM,28.9,1.0,30,30.35,10.0,ESE,4.6,-,N/A,,Clear,110,2014-01-04 14:52:00
10:52 AM,33.1,-0.0,24,30.34,10.0,Variable,3.5,-,N/A,,Clear,0,2014-01-04 15:52:00
11:52 AM,37.0,3.0,24,30.30,10.0,Calm,Calm,-,N/A,,Clear,0,2014-01-04 16:52:00
12:52 PM,39.9,3.0,21,30.25,10.0,Variable,3.5,-,N/A,,Clear,0,2014-01-04 17:52:00
1:52 PM,39.9,6.1,25,30.22,10.0,SE,5.8,-,N/A,,Clear,130,2014-01-04 18:52:00
2:52 PM,42.1,7.0,24,30.20,10.0,SE,6.9,-,N/A,,Clear,140,2014-01-04 19:52:00
3:52 PM,44.1,6.1,21,30.19,10.0,SSE,5.8,-,N/A,,Clear,160,2014-01-04 20:52:00
4:52 PM,41.0,7.0,25,30.19,10.0,SSE,10.4,16.1,N/A,,Clear,160,2014-01-04 21:52:00
5:52 PM,37.0,7.0,29,30.20,10.0,Variable,3.5,-,N/A,,Clear,0,2014-01-04 22:52:00
6:52 PM,35.1,6.1,30,30.20,10.0,SSE,6.9,-,N/A,,Clear,150,2014-01-04 23:52:00
7:52 PM,36.0,10.9,36,30.20,10.0,Variable,4.6,-,N/A,,Clear,0,2014-01-05 00:52:00
8:52 PM,37.0,19.0,48,30.19,10.0,South,8.1,18.4,N/A,,Clear,170,2014-01-05 01:52:00
9:52 PM,39.0,23.0,53,30.18,10.0,South,8.1,-,N/A,,Clear,170,2014-01-05 02:52:00
10:52 PM,39.9,24.1,53,30.16,10.0,Variable,4.6,-,N/A,,Clear,0,2014-01-05 03:52:00
11:52 PM,39.9,26.1,58,30.14,10.0,South,4.6,-,N/A,,Clear,180,2014-01-05 04:52:00